PIMOHWEATHER Station Historical Data
Daily Summary for February 23, 2020 Units:  Metric    English   Both
Daily Weekly Monthly Yearly
  High: Low: Average:
Temperature: 33.0 °C 23.0 °C 27.7 °C
Dew Point: 24.0 °C 19.0 °C 21.7 °C
Humidity: 81% 59% 71%
Wind Speed: 34km/h 0km/h 12.8km/h
Wind Gust: 40km/h - -
Wind- - ESE
Pressure: 1016.6 hPa 1011.2 hPa -
Precipitation: 0.00 mm    
 
 
Tabular Data for February 23, 2020
Time Temperature Dew Point Pressure Wind Wind Speed Wind Gust Humidity Rainfall Rate (Hourly) solar
00:04 25.0 °C 19.0 °C 1016.6 hPa NNE 7 km/h 8 km/h 68% 0.00 mm 0.00 W/m2
00:09 25.0 °C 19.0 °C 1016.3 hPa NNE 4 km/h 4 km/h 68% 0.00 mm 0.00 W/m2
00:14 25.0 °C 19.0 °C 1016.3 hPa NNE 3 km/h 4 km/h 68% 0.00 mm 0.00 W/m2
00:19 25.0 °C 19.0 °C 1016.3 hPa Calm     68% 0.00 mm 0.00 W/m2
00:24 25.0 °C 19.0 °C 1016.3 hPa NE 4 km/h 4 km/h 68% 0.00 mm 0.00 W/m2
00:29 25.0 °C 19.0 °C 1016.3 hPa Calm   4 km/h 68% 0.00 mm 0.00 W/m2
00:34 25.0 °C 19.0 °C 1016.3 hPa North 3 km/h 4 km/h 69% 0.00 mm 0.00 W/m2
00:39 25.0 °C 19.0 °C 1016.3 hPa Calm     69% 0.00 mm 0.00 W/m2
00:44 25.0 °C 19.0 °C 1016.3 hPa NW 4 km/h 4 km/h 69% 0.00 mm 0.00 W/m2
00:49 25.0 °C 19.0 °C 1015.9 hPa NW 4 km/h 4 km/h 70% 0.00 mm 0.00 W/m2
00:54 25.0 °C 19.0 °C 1015.9 hPa North 4 km/h 4 km/h 70% 0.00 mm 0.00 W/m2
00:59 25.0 °C 19.0 °C 1015.9 hPa North 8 km/h 8 km/h 70% 0.00 mm 0.00 W/m2
01:04 25.0 °C 20.0 °C 1015.6 hPa NNE 9 km/h 12 km/h 71% 0.00 mm 0.00 W/m2
01:09 25.0 °C 20.0 °C 1015.6 hPa North 8 km/h 12 km/h 71% 0.00 mm 0.00 W/m2
01:14 25.0 °C 20.0 °C 1015.6 hPa NNE 8 km/h 12 km/h 71% 0.00 mm 0.00 W/m2
01:19 25.0 °C 20.0 °C 1015.6 hPa North 3 km/h 4 km/h 72% 0.00 mm 0.00 W/m2
01:24 25.0 °C 20.0 °C 1015.6 hPa West 2 km/h 4 km/h 73% 0.00 mm 0.00 W/m2
01:29 25.0 °C 20.0 °C 1015.6 hPa NW 5 km/h 8 km/h 73% 0.00 mm 0.00 W/m2
01:34 25.0 °C 20.0 °C 1015.6 hPa North 3 km/h 4 km/h 74% 0.00 mm 0.00 W/m2
01:39 25.0 °C 20.0 °C 1015.6 hPa WNW 1 km/h 4 km/h 74% 0.00 mm 0.00 W/m2
01:44 25.0 °C 20.0 °C 1015.2 hPa North 4 km/h 4 km/h 74% 0.00 mm 0.00 W/m2
01:49 25.0 °C 20.0 °C 1015.2 hPa North 7 km/h 8 km/h 74% 0.00 mm 0.00 W/m2
01:54 25.0 °C 20.0 °C 1015.2 hPa North 6 km/h 8 km/h 75% 0.00 mm 0.00 W/m2
01:59 25.0 °C 20.0 °C 1014.9 hPa North 8 km/h 8 km/h 75% 0.00 mm 0.00 W/m2
02:04 25.0 °C 20.0 °C 1014.9 hPa NNW 10 km/h 12 km/h 75% 0.00 mm 0.00 W/m2
02:09 25.0 °C 20.0 °C 1014.6 hPa North 7 km/h 8 km/h 76% 0.00 mm 0.00 W/m2
02:14 25.0 °C 20.0 °C 1014.9 hPa NNE 9 km/h 12 km/h 76% 0.00 mm 0.00 W/m2
02:19 25.0 °C 20.0 °C 1014.9 hPa NNE 10 km/h 12 km/h 76% 0.00 mm 0.00 W/m2
02:24 25.0 °C 20.0 °C 1014.6 hPa NNE 12 km/h 16 km/h 76% 0.00 mm 0.00 W/m2
02:29 25.0 °C 20.0 °C 1014.6 hPa NNE 15 km/h 20 km/h 76% 0.00 mm 0.00 W/m2
02:34 25.0 °C 20.0 °C 1014.6 hPa North 10 km/h 12 km/h 76% 0.00 mm 0.00 W/m2
02:39 25.0 °C 20.0 °C 1014.6 hPa North 5 km/h 8 km/h 76% 0.00 mm 0.00 W/m2
02:44 25.0 °C 20.0 °C 1014.6 hPa North 5 km/h 8 km/h 76% 0.00 mm 0.00 W/m2
02:49 25.0 °C 20.0 °C 1014.6 hPa NW 5 km/h 8 km/h 77% 0.00 mm 0.00 W/m2
02:54 25.0 °C 20.0 °C 1014.6 hPa Calm     77% 0.00 mm 0.00 W/m2
02:59 25.0 °C 20.0 °C 1014.6 hPa NW 5 km/h 8 km/h 77% 0.00 mm 0.00 W/m2
03:04 25.0 °C 20.0 °C 1014.9 hPa NW 5 km/h 8 km/h 77% 0.00 mm 0.00 W/m2
03:09 25.0 °C 20.0 °C 1014.9 hPa North 5 km/h 8 km/h 76% 0.00 mm 0.00 W/m2
03:14 25.0 °C 20.0 °C 1014.6 hPa NNW 6 km/h 8 km/h 76% 0.00 mm 0.00 W/m2
03:19 25.0 °C 20.0 °C 1014.6 hPa NE 6 km/h 12 km/h 76% 0.00 mm 0.00 W/m2
03:24 25.0 °C 20.0 °C 1014.9 hPa NNE 10 km/h 20 km/h 74% 0.00 mm 0.00 W/m2
03:29 25.0 °C 20.0 °C 1014.9 hPa North 15 km/h 16 km/h 73% 0.00 mm 0.00 W/m2
03:34 25.0 °C 20.0 °C 1014.6 hPa North 8 km/h 12 km/h 74% 0.00 mm 0.00 W/m2
03:39 25.0 °C 20.0 °C 1014.9 hPa North 7 km/h 8 km/h 74% 0.00 mm 0.00 W/m2
03:44 25.0 °C 20.0 °C 1014.9 hPa NNE 6 km/h 8 km/h 74% 0.00 mm 0.00 W/m2
03:49 25.0 °C 20.0 °C 1014.9 hPa NW 6 km/h 8 km/h 75% 0.00 mm 0.00 W/m2
03:54 25.0 °C 20.0 °C 1014.9 hPa NW 4 km/h 8 km/h 75% 0.00 mm 0.00 W/m2
03:59 25.0 °C 20.0 °C 1014.9 hPa NNW 7 km/h 8 km/h 75% 0.00 mm 0.00 W/m2
04:04 25.0 °C 20.0 °C 1014.6 hPa North 7 km/h 12 km/h 74% 0.00 mm 0.00 W/m2
04:09 25.0 °C 20.0 °C 1014.6 hPa North 7 km/h 8 km/h 74% 0.00 mm 0.00 W/m2
04:14 25.0 °C 20.0 °C 1014.6 hPa North 12 km/h 12 km/h 74% 0.00 mm 0.00 W/m2
04:19 25.0 °C 20.0 °C 1014.6 hPa North 10 km/h 12 km/h 73% 0.00 mm 0.00 W/m2
04:24 25.0 °C 20.0 °C 1014.6 hPa North 17 km/h 20 km/h 73% 0.00 mm 0.00 W/m2
04:29 25.0 °C 19.0 °C 1014.9 hPa NNE 17 km/h 20 km/h 72% 0.00 mm 0.00 W/m2
04:34 25.0 °C 19.0 °C 1014.9 hPa North 15 km/h 20 km/h 72% 0.00 mm 0.00 W/m2
04:39 25.0 °C 19.0 °C 1014.9 hPa North 11 km/h 16 km/h 72% 0.00 mm 0.00 W/m2
04:44 25.0 °C 19.0 °C 1014.9 hPa North 13 km/h 16 km/h 72% 0.00 mm 0.00 W/m2
04:49 25.0 °C 19.0 °C 1014.6 hPa North 15 km/h 16 km/h 72% 0.00 mm 0.00 W/m2
04:54 25.0 °C 19.0 °C 1014.9 hPa North 10 km/h 12 km/h 72% 0.00 mm 0.00 W/m2
04:59 25.0 °C 20.0 °C 1015.2 hPa NNW 15 km/h 16 km/h 76% 0.00 mm 0.00 W/m2
05:04 24.0 °C 20.0 °C 1015.2 hPa NW 14 km/h 20 km/h 78% 0.00 mm 0.00 W/m2
05:09 24.0 °C 20.0 °C 1015.2 hPa NW 12 km/h 16 km/h 79% 0.00 mm 0.00 W/m2
05:14 23.0 °C 20.0 °C 1015.2 hPa NNW 13 km/h 20 km/h 79% 0.00 mm 0.00 W/m2
05:19 23.0 °C 20.0 °C 1015.2 hPa North 10 km/h 16 km/h 80% 0.00 mm 0.00 W/m2
05:24 23.0 °C 19.0 °C 1015.2 hPa NNW 11 km/h 16 km/h 80% 0.00 mm 0.00 W/m2
05:29 23.0 °C 19.0 °C 1015.2 hPa NW 17 km/h 20 km/h 80% 0.00 mm 0.00 W/m2
05:34 23.0 °C 19.0 °C 1015.2 hPa NW 14 km/h 16 km/h 80% 0.00 mm 0.00 W/m2
05:39 23.0 °C 19.0 °C 1015.6 hPa NNW 13 km/h 16 km/h 80% 0.00 mm 0.00 W/m2
05:44 23.0 °C 19.0 °C 1015.2 hPa NNW 9 km/h 12 km/h 80% 0.00 mm 0.00 W/m2
05:49 23.0 °C 19.0 °C 1015.2 hPa NNW 10 km/h 12 km/h 79% 0.00 mm 0.00 W/m2
05:54 23.0 °C 19.0 °C 1015.2 hPa North 13 km/h 16 km/h 79% 0.00 mm 0.00 W/m2
05:59 23.0 °C 19.0 °C 1015.6 hPa North 9 km/h 16 km/h 79% 0.00 mm 0.00 W/m2
06:04 23.0 °C 19.0 °C 1015.6 hPa North 9 km/h 12 km/h 79% 0.00 mm 0.00 W/m2
06:09 23.0 °C 19.0 °C 1015.6 hPa NNE 13 km/h 16 km/h 78% 0.00 mm 0.00 W/m2
06:14 24.0 °C 19.0 °C 1015.6 hPa North 14 km/h 16 km/h 78% 0.00 mm 0.07 W/m2
06:19 24.0 °C 19.0 °C 1015.6 hPa NNE 16 km/h 20 km/h 77% 0.00 mm 2.96 W/m2
06:24 24.0 °C 20.0 °C 1015.6 hPa NNE 21 km/h 24 km/h 76% 0.00 mm 5.98 W/m2
06:29 25.0 °C 20.0 °C 1015.6 hPa North 26 km/h 32 km/h 75% 0.00 mm 10.05 W/m2
06:34 25.0 °C 20.0 °C 1015.6 hPa NNE 23 km/h 28 km/h 74% 0.00 mm 16.54 W/m2
06:39 25.0 °C 20.0 °C 1015.6 hPa NNE 22 km/h 32 km/h 74% 0.00 mm 22.39 W/m2
06:44 25.0 °C 20.0 °C 1015.9 hPa North 19 km/h 24 km/h 73% 0.00 mm 27.09 W/m2
06:49 25.0 °C 20.0 °C 1015.9 hPa NNE 18 km/h 24 km/h 73% 0.00 mm 30.36 W/m2
06:54 25.0 °C 20.0 °C 1015.9 hPa North 17 km/h 20 km/h 73% 0.00 mm 33.57 W/m2
06:59 25.0 °C 20.0 °C 1015.9 hPa NNW 18 km/h 24 km/h 75% 0.00 mm 37.83 W/m2
07:04 24.0 °C 19.0 °C 1015.9 hPa North 15 km/h 20 km/h 75% 0.00 mm 40.61 W/m2
07:09 24.0 °C 19.0 °C 1016.3 hPa NNW 16 km/h 20 km/h 75% 0.00 mm 51.03 W/m2
07:14 24.0 °C 19.0 °C 1016.3 hPa North 19 km/h 24 km/h 75% 0.00 mm 57.17 W/m2
07:19 24.0 °C 19.0 °C 1016.6 hPa North 18 km/h 20 km/h 75% 0.00 mm 64.03 W/m2
07:24 24.0 °C 19.0 °C 1016.6 hPa North 12 km/h 16 km/h 74% 0.00 mm 72.06 W/m2
07:29 24.0 °C 19.0 °C 1016.3 hPa North 18 km/h 20 km/h 73% 0.00 mm 81.91 W/m2
07:34 24.0 °C 19.0 °C 1016.6 hPa North 17 km/h 20 km/h 73% 0.00 mm 87.88 W/m2
07:39 24.0 °C 19.0 °C 1016.3 hPa NNW 14 km/h 16 km/h 72% 0.00 mm 97.28 W/m2
07:44 25.0 °C 19.0 °C 1016.6 hPa NNW 13 km/h 16 km/h 72% 0.00 mm 106.77 W/m2
07:49 25.0 °C 19.0 °C 1016.6 hPa NNW 18 km/h 20 km/h 71% 0.00 mm 116.61 W/m2
07:54 26.0 °C 20.0 °C 1016.6 hPa North 15 km/h 16 km/h 71% 0.00 mm 126.64 W/m2
07:59 26.0 °C 20.0 °C 1016.3 hPa North 13 km/h 16 km/h 70% 0.00 mm 136.52 W/m2
08:04 26.0 °C 20.0 °C 1016.3 hPa North 18 km/h 24 km/h 69% 0.00 mm 147.07 W/m2
08:09 26.0 °C 20.0 °C 1016.6 hPa North 22 km/h 24 km/h 70% 0.00 mm 156.17 W/m2
08:14 26.0 °C 20.0 °C 1016.6 hPa North 22 km/h 24 km/h 70% 0.00 mm 167.03 W/m2
08:19 27.0 °C 20.0 °C 1016.6 hPa North 18 km/h 24 km/h 69% 0.00 mm 178.19 W/m2
08:24 27.0 °C 20.0 °C 1016.6 hPa North 21 km/h 28 km/h 68% 0.00 mm 189.96 W/m2
08:29 27.0 °C 21.0 °C 1016.6 hPa North 18 km/h 24 km/h 68% 0.00 mm 199.16 W/m2
08:34 27.0 °C 21.0 °C 1016.6 hPa North 25 km/h 28 km/h 68% 0.00 mm 208.48 W/m2
08:39 27.0 °C 21.0 °C 1016.6 hPa North 24 km/h 28 km/h 68% 0.00 mm 222.77 W/m2
08:44 27.0 °C 21.0 °C 1016.6 hPa NNE 17 km/h 24 km/h 68% 0.00 mm 233.31 W/m2
08:49 28.0 °C 21.0 °C 1016.6 hPa NNE 18 km/h 24 km/h 68% 0.00 mm 241.24 W/m2
08:54 28.0 °C 21.0 °C 1016.6 hPa NNE 17 km/h 20 km/h 67% 0.00 mm 253.77 W/m2
08:59 28.0 °C 21.0 °C 1016.6 hPa NNE 19 km/h 24 km/h 67% 0.00 mm 258.71 W/m2
09:04 28.0 °C 21.0 °C 1016.6 hPa NNE 15 km/h 20 km/h 66% 0.00 mm 268.43 W/m2
09:09 28.0 °C 21.0 °C 1016.6 hPa North 21 km/h 28 km/h 66% 0.00 mm 281.59 W/m2
09:14 29.0 °C 21.0 °C 1016.6 hPa NNE 15 km/h 20 km/h 66% 0.00 mm 295.88 W/m2
09:19 29.0 °C 21.0 °C 1016.6 hPa North 15 km/h 20 km/h 65% 0.00 mm 304.98 W/m2
09:24 29.0 °C 21.0 °C 1016.6 hPa NNE 21 km/h 24 km/h 65% 0.00 mm 310.39 W/m2
09:29 29.0 °C 21.0 °C 1016.6 hPa NE 26 km/h 32 km/h 64% 0.00 mm 320.59 W/m2
09:34 30.0 °C 22.0 °C 1016.6 hPa NNE 16 km/h 20 km/h 63% 0.00 mm 338.57 W/m2
09:39 30.0 °C 22.0 °C 1016.6 hPa NNE 25 km/h 32 km/h 63% 0.00 mm 349.44 W/m2
09:44 30.0 °C 22.0 °C 1016.6 hPa NNE 27 km/h 28 km/h 63% 0.00 mm 353.33 W/m2
09:49 30.0 °C 22.0 °C 1016.6 hPa NNE 21 km/h 28 km/h 64% 0.00 mm 375.57 W/m2
09:54 30.0 °C 22.0 °C 1016.6 hPa NNE 24 km/h 36 km/h 64% 0.00 mm 390.47 W/m2
09:59 29.0 °C 22.0 °C 1016.6 hPa North 32 km/h 36 km/h 65% 0.00 mm 362.48 W/m2
10:04 30.0 °C 22.0 °C 1016.6 hPa NNE 22 km/h 24 km/h 65% 0.00 mm 376.30 W/m2
10:09 29.0 °C 22.0 °C 1016.6 hPa North 28 km/h 36 km/h 65% 0.00 mm 393.38 W/m2
10:14 29.0 °C 22.0 °C 1016.6 hPa NNE 25 km/h 28 km/h 65% 0.00 mm 365.00 W/m2
10:19 30.0 °C 22.0 °C 1016.6 hPa NNE 21 km/h 24 km/h 64% 0.00 mm 376.28 W/m2
10:24 30.0 °C 22.0 °C 1016.3 hPa NNE 20 km/h 24 km/h 64% 0.00 mm 393.23 W/m2
10:29 30.0 °C 22.0 °C 1016.3 hPa NNE 26 km/h 28 km/h 64% 0.00 mm 413.17 W/m2
10:34 30.0 °C 22.0 °C 1016.3 hPa North 27 km/h 32 km/h 64% 0.00 mm 459.17 W/m2
10:39 30.0 °C 22.0 °C 1016.3 hPa NNE 28 km/h 32 km/h 63% 0.00 mm 444.86 W/m2
10:44 30.0 °C 22.0 °C 1016.3 hPa NNE 25 km/h 28 km/h 64% 0.00 mm 435.37 W/m2
10:49 31.0 °C 23.0 °C 1015.9 hPa NNE 33 km/h 36 km/h 63% 0.00 mm 431.45 W/m2
10:54 30.0 °C 23.0 °C 1015.9 hPa NNE 27 km/h 32 km/h 65% 0.00 mm 420.59 W/m2
10:59 30.0 °C 23.0 °C 1015.6 hPa NNE 27 km/h 32 km/h 65% 0.00 mm 445.10 W/m2
11:04 30.0 °C 23.0 °C 1015.9 hPa North 28 km/h 32 km/h 64% 0.00 mm 432.36 W/m2
11:09 31.0 °C 23.0 °C 1015.9 hPa North 26 km/h 32 km/h 64% 0.00 mm 415.28 W/m2
11:14 30.0 °C 23.0 °C 1015.9 hPa NNE 25 km/h 28 km/h 65% 0.00 mm 417.36 W/m2
11:19 31.0 °C 23.0 °C 1015.6 hPa NNE 32 km/h 36 km/h 65% 0.00 mm 412.78 W/m2
11:24 31.0 °C 23.0 °C 1015.6 hPa NNE 19 km/h 20 km/h 63% 0.00 mm 426.66 W/m2
11:29 31.0 °C 23.0 °C 1015.6 hPa NNE 30 km/h 36 km/h 64% 0.00 mm 473.88 W/m2
11:34 30.0 °C 23.0 °C 1015.6 hPa NNE 33 km/h 40 km/h 64% 0.00 mm 365.44 W/m2
11:39 30.0 °C 23.0 °C 1015.2 hPa NNE 24 km/h 28 km/h 65% 0.00 mm 452.49 W/m2
11:44 31.0 °C 23.0 °C 1015.2 hPa NNE 26 km/h 32 km/h 63% 0.00 mm 451.64 W/m2
11:49 31.0 °C 23.0 °C 1015.2 hPa NNE 27 km/h 32 km/h 64% 0.00 mm 348.75 W/m2
11:54 30.0 °C 23.0 °C 1014.9 hPa NNE 19 km/h 24 km/h 64% 0.00 mm 256.41 W/m2
11:59 31.0 °C 23.0 °C 1014.9 hPa NNE 24 km/h 28 km/h 64% 0.00 mm 501.62 W/m2
12:04 31.0 °C 23.0 °C 1014.6 hPa NNE 22 km/h 28 km/h 64% 0.00 mm 479.50 W/m2
12:09 31.0 °C 23.0 °C 1014.6 hPa NNE 19 km/h 24 km/h 63% 0.00 mm 483.20 W/m2
12:14 32.0 °C 23.0 °C 1014.6 hPa NNE 34 km/h 40 km/h 62% 0.00 mm 485.25 W/m2
12:19 31.0 °C 23.0 °C 1014.6 hPa NNE 28 km/h 32 km/h 63% 0.00 mm 451.95 W/m2
12:24 31.0 °C 23.0 °C 1014.2 hPa NNE 23 km/h 24 km/h 63% 0.00 mm 480.85 W/m2
12:29 31.0 °C 23.0 °C 1014.2 hPa NE 26 km/h 36 km/h 63% 0.00 mm 485.52 W/m2
12:34 31.0 °C 23.0 °C 1014.2 hPa NNE 20 km/h 28 km/h 63% 0.00 mm 475.34 W/m2
12:39 31.0 °C 23.0 °C 1014.2 hPa North 30 km/h 36 km/h 64% 0.00 mm 472.24 W/m2
12:44 31.0 °C 23.0 °C 1013.9 hPa NNE 22 km/h 24 km/h 65% 0.00 mm 484.94 W/m2
12:49 32.0 °C 23.0 °C 1013.6 hPa SE 14 km/h 20 km/h 61% 0.00 mm 491.54 W/m2
12:54 33.0 °C 23.0 °C 1013.9 hPa ENE 20 km/h 24 km/h 60% 0.00 mm 497.83 W/m2
12:59 33.0 °C 24.0 °C 1013.6 hPa NNE 17 km/h 20 km/h 61% 0.00 mm 566.34 W/m2
13:04 32.0 °C 24.0 °C 1013.6 hPa NNE 17 km/h 20 km/h 61% 0.00 mm 549.53 W/m2
13:09 32.0 °C 24.0 °C 1013.6 hPa NNE 29 km/h 32 km/h 63% 0.00 mm 519.75 W/m2
13:14 32.0 °C 23.0 °C 1013.2 hPa North 22 km/h 28 km/h 63% 0.00 mm 554.64 W/m2
13:19 32.0 °C 23.0 °C 1013.2 hPa NE 18 km/h 24 km/h 60% 0.00 mm 580.33 W/m2
13:24 32.0 °C 23.0 °C 1012.9 hPa NNE 17 km/h 20 km/h 61% 0.00 mm 573.21 W/m2
13:29 31.0 °C 23.0 °C 1012.9 hPa NNE 22 km/h 32 km/h 62% 0.00 mm 494.80 W/m2
13:34 32.0 °C 24.0 °C 1012.9 hPa NE 14 km/h 16 km/h 62% 0.00 mm 484.40 W/m2
13:39 32.0 °C 24.0 °C 1012.9 hPa NNE 15 km/h 20 km/h 62% 0.00 mm 515.06 W/m2
13:44 32.0 °C 23.0 °C 1012.9 hPa NE 10 km/h 12 km/h 62% 0.00 mm 314.03 W/m2
13:49 32.0 °C 23.0 °C 1012.9 hPa NNE 13 km/h 16 km/h 63% 0.00 mm 290.72 W/m2
13:54 31.0 °C 23.0 °C 1012.9 hPa NE 14 km/h 20 km/h 64% 0.00 mm 156.63 W/m2
13:59 31.0 °C 23.0 °C 1012.9 hPa NE 13 km/h 16 km/h 64% 0.00 mm 130.45 W/m2
14:04 31.0 °C 23.0 °C 1012.9 hPa NNE 11 km/h 16 km/h 65% 0.00 mm 110.78 W/m2
14:09 31.0 °C 23.0 °C 1012.9 hPa NE 13 km/h 16 km/h 65% 0.00 mm 96.10 W/m2
14:14 31.0 °C 23.0 °C 1012.5 hPa NE 8 km/h 12 km/h 65% 0.00 mm 89.62 W/m2
14:19 31.0 °C 23.0 °C 1012.5 hPa East 9 km/h 12 km/h 66% 0.00 mm 86.00 W/m2
14:24 31.0 °C 23.0 °C 1012.5 hPa NE 8 km/h 12 km/h 66% 0.00 mm 71.01 W/m2
14:29 31.0 °C 24.0 °C 1012.5 hPa ENE 6 km/h 12 km/h 67% 0.00 mm 74.04 W/m2
14:34 30.0 °C 24.0 °C 1012.2 hPa East 10 km/h 12 km/h 67% 0.00 mm 84.28 W/m2
14:39 30.0 °C 24.0 °C 1012.2 hPa East 10 km/h 12 km/h 68% 0.00 mm 75.42 W/m2
14:44 30.0 °C 24.0 °C 1012.2 hPa East 18 km/h 20 km/h 68% 0.00 mm 81.79 W/m2
14:49 30.0 °C 23.0 °C 1012.2 hPa ENE 5 km/h 8 km/h 67% 0.00 mm 105.82 W/m2
14:54 31.0 °C 24.0 °C 1012.2 hPa NW 12 km/h 16 km/h 67% 0.00 mm 460.64 W/m2
14:59 31.0 °C 24.0 °C 1012.2 hPa East 20 km/h 24 km/h 65% 0.00 mm 461.42 W/m2
15:04 32.0 °C 24.0 °C 1011.9 hPa ESE 15 km/h 20 km/h 65% 0.00 mm 437.18 W/m2
15:09 32.0 °C 24.0 °C 1012.2 hPa East 6 km/h 8 km/h 64% 0.00 mm 443.78 W/m2
15:14 33.0 °C 24.0 °C 1011.9 hPa SSW 12 km/h 16 km/h 61% 0.00 mm 455.99 W/m2
15:19 33.0 °C 24.0 °C 1011.5 hPa SSE 8 km/h 16 km/h 59% 0.00 mm 448.04 W/m2
15:24 33.0 °C 24.0 °C 1011.9 hPa East 10 km/h 12 km/h 59% 0.00 mm 481.78 W/m2
15:29 33.0 °C 24.0 °C 1011.5 hPa ENE 8 km/h 12 km/h 60% 0.00 mm 487.97 W/m2
15:34 33.0 °C 24.0 °C 1011.5 hPa East 9 km/h 12 km/h 60% 0.00 mm 511.68 W/m2
15:39 32.0 °C 24.0 °C 1011.5 hPa East 10 km/h 12 km/h 61% 0.00 mm 140.17 W/m2
15:44 32.0 °C 23.0 °C 1011.5 hPa East 13 km/h 16 km/h 62% 0.00 mm 447.21 W/m2
15:49 33.0 °C 24.0 °C 1011.5 hPa ESE 13 km/h 20 km/h 62% 0.00 mm 479.77 W/m2
15:54 33.0 °C 24.0 °C 1011.2 hPa East 5 km/h 12 km/h 60% 0.00 mm 453.32 W/m2
15:59 33.0 °C 24.0 °C 1011.5 hPa NNE 12 km/h 16 km/h 61% 0.00 mm 438.74 W/m2
16:04 32.0 °C 23.0 °C 1011.5 hPa NNE 10 km/h 12 km/h 63% 0.00 mm 143.72 W/m2
16:09 31.0 °C 23.0 °C 1011.5 hPa NNE 11 km/h 16 km/h 63% 0.00 mm 82.30 W/m2
16:14 31.0 °C 23.0 °C 1011.5 hPa NNE 19 km/h 24 km/h 64% 0.00 mm 71.07 W/m2
16:19 30.0 °C 23.0 °C 1011.5 hPa NNE 15 km/h 20 km/h 64% 0.00 mm 73.31 W/m2
16:24 30.0 °C 23.0 °C 1011.5 hPa NNE 25 km/h 28 km/h 64% 0.00 mm 67.53 W/m2
16:29 30.0 °C 23.0 °C 1011.5 hPa NNE 19 km/h 24 km/h 64% 0.00 mm 319.46 W/m2
16:34 31.0 °C 23.0 °C 1011.5 hPa North 18 km/h 20 km/h 63% 0.00 mm 313.18 W/m2
16:39 31.0 °C 23.0 °C 1011.9 hPa NNE 20 km/h 24 km/h 63% 0.00 mm 320.34 W/m2
16:44 31.0 °C 23.0 °C 1011.5 hPa North 25 km/h 32 km/h 63% 0.00 mm 321.08 W/m2
16:49 31.0 °C 23.0 °C 1011.9 hPa NNE 18 km/h 20 km/h 64% 0.00 mm 275.50 W/m2
16:54 31.0 °C 23.0 °C 1011.9 hPa NE 18 km/h 24 km/h 63% 0.00 mm 251.10 W/m2
16:59 31.0 °C 23.0 °C 1011.9 hPa NE 15 km/h 20 km/h 63% 0.00 mm 59.24 W/m2
17:04 30.0 °C 23.0 °C 1012.2 hPa NNE 12 km/h 16 km/h 64% 0.00 mm 67.21 W/m2
17:09 30.0 °C 23.0 °C 1012.2 hPa NNE 12 km/h 16 km/h 65% 0.00 mm 73.78 W/m2
17:14 30.0 °C 23.0 °C 1012.2 hPa North 18 km/h 24 km/h 67% 0.00 mm 67.85 W/m2
17:19 30.0 °C 23.0 °C 1012.2 hPa NNE 16 km/h 20 km/h 67% 0.00 mm 47.18 W/m2
17:24 30.0 °C 23.0 °C 1012.2 hPa NNE 15 km/h 20 km/h 67% 0.00 mm 51.53 W/m2
17:29 29.0 °C 23.0 °C 1012.2 hPa NNE 15 km/h 16 km/h 67% 0.00 mm 51.85 W/m2
17:34 29.0 °C 23.0 °C 1012.2 hPa NNE 24 km/h 28 km/h 67% 0.00 mm 46.71 W/m2
17:39 29.0 °C 23.0 °C 1012.2 hPa North 17 km/h 24 km/h 67% 0.00 mm 23.17 W/m2
17:44 30.0 °C 23.0 °C 1012.2 hPa North 18 km/h 20 km/h 67% 0.00 mm 13.37 W/m2
17:49 29.0 °C 23.0 °C 1012.2 hPa NNE 17 km/h 20 km/h 67% 0.00 mm 7.72 W/m2
17:54 29.0 °C 23.0 °C 1012.2 hPa NE 18 km/h 20 km/h 68% 0.00 mm 6.54 W/m2
17:59 29.0 °C 23.0 °C 1012.2 hPa NNE 18 km/h 20 km/h 68% 0.00 mm 4.89 W/m2
18:04 29.0 °C 23.0 °C 1012.2 hPa NNE 15 km/h 16 km/h 69% 0.00 mm 2.30 W/m2
18:09 29.0 °C 23.0 °C 1012.2 hPa NE 10 km/h 12 km/h 69% 0.00 mm 0.11 W/m2
18:14 29.0 °C 23.0 °C 1012.5 hPa NNE 14 km/h 16 km/h 70% 0.00 mm 0.00 W/m2
18:19 29.0 °C 23.0 °C 1012.5 hPa NNE 15 km/h 20 km/h 70% 0.00 mm 0.00 W/m2
18:24 29.0 °C 23.0 °C 1012.5 hPa NNE 11 km/h 16 km/h 71% 0.00 mm 0.00 W/m2
18:29 29.0 °C 23.0 °C 1012.5 hPa NNE 10 km/h 12 km/h 71% 0.00 mm 0.00 W/m2
18:34 29.0 °C 23.0 °C 1012.5 hPa North 12 km/h 20 km/h 71% 0.00 mm 0.00 W/m2
18:39 28.0 °C 23.0 °C 1012.5 hPa North 13 km/h 16 km/h 71% 0.00 mm 0.00 W/m2
18:44 28.0 °C 23.0 °C 1012.5 hPa NNE 12 km/h 16 km/h 72% 0.00 mm 0.00 W/m2
18:49 28.0 °C 23.0 °C 1012.5 hPa North 11 km/h 12 km/h 72% 0.00 mm 0.00 W/m2
18:54 28.0 °C 23.0 °C 1012.5 hPa NNE 10 km/h 16 km/h 73% 0.00 mm 0.00 W/m2
18:59 28.0 °C 23.0 °C 1012.9 hPa NNE 13 km/h 16 km/h 73% 0.00 mm 0.00 W/m2
19:04 28.0 °C 23.0 °C 1012.9 hPa NNE 14 km/h 16 km/h 73% 0.00 mm 0.00 W/m2
19:09 28.0 °C 23.0 °C 1012.9 hPa NE 7 km/h 12 km/h 73% 0.00 mm 0.00 W/m2
19:14 28.0 °C 23.0 °C 1012.9 hPa NNE 5 km/h 8 km/h 73% 0.00 mm 0.00 W/m2
19:19 28.0 °C 23.0 °C 1012.9 hPa NNE 13 km/h 16 km/h 74% 0.00 mm 0.00 W/m2
19:24 28.0 °C 23.0 °C 1012.9 hPa ENE 8 km/h 12 km/h 74% 0.00 mm 0.00 W/m2
19:29 28.0 °C 23.0 °C 1012.9 hPa North 9 km/h 12 km/h 75% 0.00 mm 0.00 W/m2
19:34 28.0 °C 23.0 °C 1012.9 hPa NNE 11 km/h 12 km/h 76% 0.00 mm 0.00 W/m2
19:39 27.0 °C 23.0 °C 1012.9 hPa NNE 8 km/h 8 km/h 77% 0.00 mm 0.00 W/m2
19:44 27.0 °C 23.0 °C 1013.2 hPa North 6 km/h 8 km/h 77% 0.00 mm 0.00 W/m2
19:49 27.0 °C 23.0 °C 1013.2 hPa North 10 km/h 12 km/h 77% 0.00 mm 0.00 W/m2
19:54 27.0 °C 23.0 °C 1013.2 hPa North 10 km/h 16 km/h 77% 0.00 mm 0.00 W/m2
19:59 27.0 °C 23.0 °C 1013.2 hPa North 8 km/h 12 km/h 77% 0.00 mm 0.00 W/m2
20:04 27.0 °C 23.0 °C 1013.2 hPa North 7 km/h 8 km/h 77% 0.00 mm 0.00 W/m2
20:09 27.0 °C 23.0 °C 1013.6 hPa NNE 7 km/h 8 km/h 77% 0.00 mm 0.00 W/m2
20:14 27.0 °C 23.0 °C 1013.6 hPa NNE 4 km/h 8 km/h 77% 0.00 mm 0.00 W/m2
20:19 27.0 °C 23.0 °C 1013.6 hPa Calm     77% 0.00 mm 0.00 W/m2
20:24 27.0 °C 23.0 °C 1013.6 hPa Calm     77% 0.00 mm 0.00 W/m2
20:29 27.0 °C 23.0 °C 1013.9 hPa ESE 5 km/h 8 km/h 76% 0.00 mm 0.00 W/m2
20:34 27.0 °C 23.0 °C 1013.9 hPa SE 5 km/h 8 km/h 75% 0.00 mm 0.00 W/m2
20:39 28.0 °C 23.0 °C 1014.2 hPa East 1 km/h 4 km/h 75% 0.00 mm 0.00 W/m2
20:44 27.0 °C 23.0 °C 1014.2 hPa SE 5 km/h 8 km/h 75% 0.00 mm 0.00 W/m2
20:49 27.0 °C 23.0 °C 1013.9 hPa SSE 3 km/h 4 km/h 75% 0.00 mm 0.00 W/m2
20:54 27.0 °C 23.0 °C 1014.2 hPa ESE 4 km/h 4 km/h 75% 0.00 mm 0.00 W/m2
20:59 27.0 °C 23.0 °C 1014.6 hPa ESE 1 km/h 4 km/h 76% 0.00 mm 0.00 W/m2
21:04 27.0 °C 23.0 °C 1014.6 hPa Calm   4 km/h 75% 0.00 mm 0.00 W/m2
21:09 28.0 °C 23.0 °C 1014.6 hPa NNE 5 km/h 8 km/h 75% 0.00 mm 0.00 W/m2
21:14 27.0 °C 23.0 °C 1014.6 hPa ENE 4 km/h 4 km/h 75% 0.00 mm 0.00 W/m2
21:19 27.0 °C 23.0 °C 1014.6 hPa ENE 5 km/h 8 km/h 75% 0.00 mm 0.00 W/m2
21:24 27.0 °C 23.0 °C 1014.6 hPa ENE 7 km/h 12 km/h 76% 0.00 mm 0.00 W/m2
21:29 27.0 °C 23.0 °C 1014.6 hPa NE 3 km/h 4 km/h 76% 0.00 mm 0.00 W/m2
21:34 27.0 °C 23.0 °C 1014.6 hPa South 2 km/h 4 km/h 76% 0.00 mm 0.00 W/m2
21:39 27.0 °C 23.0 °C 1014.6 hPa SE 5 km/h 8 km/h 76% 0.00 mm 0.00 W/m2
21:44 27.0 °C 23.0 °C 1014.6 hPa NE 5 km/h 8 km/h 77% 0.00 mm 0.00 W/m2
21:49 27.0 °C 23.0 °C 1014.6 hPa East 6 km/h 8 km/h 77% 0.00 mm 0.00 W/m2
21:54 27.0 °C 23.0 °C 1014.6 hPa North 4 km/h 4 km/h 78% 0.00 mm 0.00 W/m2
21:59 27.0 °C 23.0 °C 1014.6 hPa NW 4 km/h 4 km/h 79% 0.00 mm 0.00 W/m2
22:04 27.0 °C 23.0 °C 1014.6 hPa NW 6 km/h 8 km/h 79% 0.00 mm 0.00 W/m2
22:09 27.0 °C 23.0 °C 1014.6 hPa North 4 km/h 4 km/h 79% 0.00 mm 0.00 W/m2
22:14 27.0 °C 23.0 °C 1014.6 hPa North 4 km/h 4 km/h 79% 0.00 mm 0.00 W/m2
22:19 27.0 °C 23.0 °C 1014.6 hPa North 5 km/h 8 km/h 79% 0.00 mm 0.00 W/m2
22:24 27.0 °C 23.0 °C 1014.6 hPa North 4 km/h 4 km/h 79% 0.00 mm 0.00 W/m2
22:29 27.0 °C 23.0 °C 1014.9 hPa North 3 km/h 4 km/h 79% 0.00 mm 0.00 W/m2
22:34 26.0 °C 23.0 °C 1014.6 hPa North 6 km/h 8 km/h 79% 0.00 mm 0.00 W/m2
22:39 26.0 °C 23.0 °C 1014.6 hPa NNE 5 km/h 8 km/h 79% 0.00 mm 0.00 W/m2
22:44 26.0 °C 23.0 °C 1014.6 hPa NNW 4 km/h 4 km/h 79% 0.00 mm 0.00 W/m2
22:49 27.0 °C 23.0 °C 1014.6 hPa Calm     79% 0.00 mm 0.00 W/m2
22:54 26.0 °C 23.0 °C 1014.6 hPa North 5 km/h 8 km/h 80% 0.00 mm 0.00 W/m2
22:59 26.0 °C 23.0 °C 1014.6 hPa North 8 km/h 12 km/h 80% 0.00 mm 0.00 W/m2
23:04 26.0 °C 23.0 °C 1014.6 hPa North 6 km/h 8 km/h 80% 0.00 mm 0.00 W/m2
23:09 26.0 °C 23.0 °C 1014.6 hPa NNE 11 km/h 12 km/h 81% 0.00 mm 0.00 W/m2
23:14 26.0 °C 23.0 °C 1014.6 hPa North 9 km/h 12 km/h 81% 0.00 mm 0.00 W/m2
23:19 26.0 °C 23.0 °C 1014.6 hPa North 5 km/h 8 km/h 81% 0.00 mm 0.00 W/m2
23:24 26.0 °C 23.0 °C 1014.6 hPa NNE 6 km/h 8 km/h 81% 0.00 mm 0.00 W/m2
23:29 26.0 °C 23.0 °C 1014.6 hPa Calm     81% 0.00 mm 0.00 W/m2
23:34 26.0 °C 23.0 °C 1014.6 hPa Calm     81% 0.00 mm 0.00 W/m2
23:39 26.0 °C 23.0 °C 1014.6 hPa ESE 1 km/h 4 km/h 81% 0.00 mm 0.00 W/m2
23:44 26.0 °C 23.0 °C 1014.6 hPa Calm     80% 0.00 mm 0.00 W/m2
23:49 26.0 °C 23.0 °C 1014.6 hPa Calm     80% 0.00 mm 0.00 W/m2
23:54 26.0 °C 23.0 °C 1014.6 hPa SE 1 km/h 4 km/h 80% 0.00 mm 0.00 W/m2
23:59 27.0 °C 23.0 °C 1014.6 hPa East 2 km/h 4 km/h 79% 0.00 mm 0.00 W/m2
PIMOHWEATHER Philippines
Compliments of Weather Underground - 2 mb